Location: Dillon
(41.1766°N, 107.0923°W)
Time: 05:50:10
(UTC+00:00)

SO-50 - Pass Details

Date: 11 July 2022
Orbit: 584 x 698 km, 64.6° (Epoch: 18 August)

Event Time Altitude Azimuth Distance (km) Brightness Sun altitude
Exits shadow 04:08:28 - 193° (SSW) 2,568 ? -13.5°
Reaches altitude 10° 04:09:52 10° 188° (S) 2,034 ? -13.7°
Maximum altitude 04:14:16 45° 117° (ESE) 903 ? -14.2°
Drops below altitude 10° 04:18:50 10° 45° (NE) 2,114 ? -14.8°
Sets 04:21:16 0° 39° (NE) 3,048 ? -15.1°
